Waarnemingen

Advertentie
Mijn weer
Bilbao/Aeropuerto, Spanje (8025): temperatuur & dauwpunt: 13.06.2018 06:00:00 - 19.06.2018 06:00:00 (CEST)Bilbao/Aeropuerto, Spanje (8025): windsnelheid: 13.06.2018 06:00:00 - 19.06.2018 06:00:00 (CEST)Bilbao/Aeropuerto, Spanje (8025): windrichting: 13.06.2018 06:00:00 - 19.06.2018 06:00:00 (CEST)Bilbao/Aeropuerto, Spanje (8025): luchtdruk: 13.06.2018 06:00:00 - 19.06.2018 06:00:00 (CEST)Bilbao/Aeropuerto, Spanje (8025): zicht: 13.06.2018 06:00:00 - 19.06.2018 06:00:00 (CEST)
Datum & Tijd tt [°C] td [°C] ff [km/u] ff [kn] dd ppp [hPa] vv [km]
19.06.2018 06:00:00 15,9 14,9 4 2 WNW 1025,9 -
19.06.2018 05:00:00 15,9 14,8 5 3 WNW 1026,1 15
19.06.2018 04:00:00 16,1 15,1 0 0 N 1026,2 -
19.06.2018 03:00:00 16,4 15,1 5 3 NO 1026,4 -
19.06.2018 02:00:00 16,6 15,5 4 2 ONO 1026,8 -
19.06.2018 01:00:00 17,0 15,7 5 3 OZO 1027,0 -
19.06.2018 00:00:00 17,1 15,8 0 0 N 1027,5 -
18.06.2018 23:00:00 17,6 15,6 5 3 NNW 1027,3 12
18.06.2018 22:00:00 18,0 15,6 5 3 N 1027,1 -
18.06.2018 21:00:00 18,1 15,3 5 3 WNW 1027,1 -
18.06.2018 20:00:00 18,4 15,4 11 6 NNW 1027,0 12
18.06.2018 19:00:00 18,5 15,7 13 7 NNW 1027,3 -
18.06.2018 18:00:00 18,4 16,5 18 10 N 1027,2 -
18.06.2018 17:00:00 19,5 16,7 15 8 NNW 1027,3 15
18.06.2018 16:00:00 20,3 16,6 18 10 NW 1027,4 -
18.06.2018 15:00:00 21,1 16,1 16 9 N 1027,2 -
18.06.2018 14:00:00 20,5 16,3 13 7 NNW 1027,4 10
18.06.2018 13:00:00 19,4 16,5 13 7 NNW 1027,7 -
18.06.2018 12:00:00 20,0 14,8 15 8 NW 1027,5 -
18.06.2018 11:00:00 19,9 15,4 4 2 WNW 1027,5 20
18.06.2018 10:00:00 18,1 14,0 0 0 N 1027,8 -
18.06.2018 09:00:00 16,4 13,7 4 2 OZO 1027,8 -
18.06.2018 08:00:00 15,0 13,0 8 4 O 1027,3 15
18.06.2018 07:00:00 14,6 13,0 5 3 OZO 1027,1 -
18.06.2018 06:00:00 14,2 12,8 8 4 O 1027,0 -
18.06.2018 05:00:00 13,7 12,6 5 3 OZO 1026,9 12
18.06.2018 04:00:00 13,0 12,1 5 3 OZO 1027,1 -
18.06.2018 03:00:00 13,0 11,7 8 4 O 1027,1 -
18.06.2018 02:00:00 13,5 12,2 8 4 ZO 1027,2 -
18.06.2018 01:00:00 14,3 12,5 5 3 O 1027,3 -
18.06.2018 00:00:00 15,1 12,8 8 4 O 1027,4 -
17.06.2018 23:00:00 16,3 12,8 0 0 N 1027,1 20
17.06.2018 22:00:00 17,5 12,7 8 4 N 1026,9 -
17.06.2018 21:00:00 19,3 12,7 9 5 N 1026,4 -
17.06.2018 20:00:00 20,4 13,5 9 5 NW 1026,1 50
17.06.2018 19:00:00 20,8 13,9 13 7 N 1025,9 -
17.06.2018 18:00:00 21,4 13,6 15 8 N 1025,7 -
17.06.2018 17:00:00 21,4 13,9 13 7 NNW 1025,5 40
17.06.2018 16:00:00 21,9 15,0 15 8 NW 1025,3 -
17.06.2018 15:00:00 21,6 14,2 13 7 NW 1025,4 -
17.06.2018 14:00:00 21,1 14,7 13 7 N 1025,4 25
17.06.2018 13:00:00 20,0 13,5 11 6 NNW 1025,6 -
17.06.2018 12:00:00 20,4 14,7 8 4 NNW 1025,6 -
17.06.2018 11:00:00 19,1 14,0 8 4 WNW 1025,6 20
17.06.2018 10:00:00 18,2 13,8 2 1 NW 1025,6 -
17.06.2018 09:00:00 16,2 14,7 5 3 OZO 1025,3 -
17.06.2018 08:00:00 15,4 14,4 8 4 OZO 1024,8 15
17.06.2018 07:00:00 15,1 13,8 5 3 O 1024,2 -
17.06.2018 06:00:00 14,9 13,8 8 4 OZO 1023,8 -
17.06.2018 05:00:00 15,0 13,5 8 4 ONO 1023,7 12
17.06.2018 04:00:00 14,7 13,4 5 3 O 1023,9 -
17.06.2018 03:00:00 14,4 13,3 4 2 OZO 1023,7 -
17.06.2018 02:00:00 14,2 12,9 8 4 ZO 1023,9 -
17.06.2018 01:00:00 15,1 13,3 0 0 N 1023,9 -
17.06.2018 00:00:00 15,9 13,4 0 0 N 1024,2 -
16.06.2018 23:00:00 17,1 13,2 8 4 N 1023,8 30
16.06.2018 22:00:00 17,3 13,1 8 4 N 1023,0 -
16.06.2018 21:00:00 18,0 13,5 9 5 N 1022,6 -
16.06.2018 20:00:00 18,6 13,5 15 8 N 1022,6 30
16.06.2018 19:00:00 19,7 14,1 16 9 N 1021,7 -
16.06.2018 18:00:00 20,6 14,1 15 8 N 1021,1 -
16.06.2018 17:00:00 20,3 13,9 16 9 N 1021,0 30
16.06.2018 16:00:00 19,8 13,7 15 8 N 1021,1 -
16.06.2018 15:00:00 20,3 13,9 13 7 N 1021,2 -
16.06.2018 14:00:00 20,2 13,5 11 6 N 1021,1 30
16.06.2018 13:00:00 19,5 14,8 15 8 NW 1021,3 -
16.06.2018 12:00:00 19,4 15,5 11 6 WNW 1021,2 -
16.06.2018 11:00:00 17,5 15,1 4 2 WZW 1021,0 20
16.06.2018 10:00:00 17,2 15,4 0 0 N 1020,9 -
16.06.2018 09:00:00 16,6 15,6 0 0 N 1020,5 -
16.06.2018 08:00:00 15,8 15,0 0 0 N 1019,9 10
16.06.2018 07:00:00 15,4 14,8 4 2 Z 1019,7 -
16.06.2018 06:00:00 15,5 14,9 0 0 N 1019,8 -
16.06.2018 05:00:00 15,6 14,8 4 2 ONO 1019,7 8
16.06.2018 04:00:00 15,5 14,9 0 0 N 1019,7 -
16.06.2018 03:00:00 15,4 14,8 0 0 N 1020,3 -
16.06.2018 02:00:00 15,4 14,9 4 2 WNW 1020,8 -
16.06.2018 01:00:00 15,6 15,1 5 3 WNW 1021,1 -
16.06.2018 00:00:00 15,6 15,0 8 4 W 1021,0 -
15.06.2018 23:00:00 15,9 15,3 9 5 NW 1021,2 6
15.06.2018 22:00:00 16,7 15,7 8 4 NW 1020,7 -
15.06.2018 21:00:00 17,3 16,2 4 2 NNO 1020,5 -
15.06.2018 20:00:00 17,6 15,9 13 7 N 1020,4 8
15.06.2018 19:00:00 18,8 16,0 16 9 N 1020,1 -
15.06.2018 18:00:00 19,1 16,2 15 8 NNW 1020,2 -
15.06.2018 17:00:00 20,5 16,3 16 9 NNW 1020,1 15
15.06.2018 16:00:00 21,3 15,9 16 9 NW 1020,2 -
15.06.2018 15:00:00 20,0 15,4 15 8 NNW 1020,3 -
15.06.2018 14:00:00 19,5 15,8 9 5 NW 1020,1 12
15.06.2018 13:00:00 18,5 14,9 5 3 WNW 1020,2 -
15.06.2018 12:00:00 17,2 14,4 5 3 N 1020,5 -
15.06.2018 11:00:00 17,0 13,3 0 0 N 1020,4 20
15.06.2018 10:00:00 16,5 13,7 4 2 O 1020,1 -
15.06.2018 09:00:00 15,1 12,9 9 5 OZO 1020,0 -
15.06.2018 08:00:00 14,1 12,5 9 5 OZO 1019,9 20
15.06.2018 07:00:00 13,4 12,1 5 3 ZO 1019,6 -
15.06.2018 06:00:00 13,2 12,1 8 4 OZO 1019,6 -
15.06.2018 05:00:00 12,8 11,9 8 4 O 1019,7 20
15.06.2018 04:00:00 12,4 11,5 8 4 O 1019,9 -
15.06.2018 03:00:00 12,6 11,7 8 4 O 1020,3 -
15.06.2018 02:00:00 13,1 11,8 8 4 O 1020,5 -
15.06.2018 01:00:00 14,0 12,4 5 3 O 1020,7 -
15.06.2018 00:00:00 14,7 12,6 2 1 OZO 1020,9 -
14.06.2018 23:00:00 15,8 12,9 4 2 W 1021,1 15
14.06.2018 22:00:00 16,7 12,8 11 6 NNW 1020,5 -
14.06.2018 21:00:00 18,7 13,3 11 6 NNW 1020,4 -
14.06.2018 20:00:00 20,5 13,3 9 5 NW 1020,1 30
14.06.2018 19:00:00 21,1 13,0 15 8 NNW 1020,0 -
14.06.2018 18:00:00 21,4 13,3 5 3 ZW 1020,2 -
14.06.2018 17:00:00 21,4 12,7 11 6 NW 1020,5 30
14.06.2018 16:00:00 21,2 13,8 11 6 NW 1020,7 -
14.06.2018 15:00:00 20,2 13,4 11 6 NNW 1021,0 -
14.06.2018 14:00:00 19,7 12,2 11 6 NNW 1021,5 25
14.06.2018 13:00:00 18,9 11,8 9 5 NNW 1021,7 -
14.06.2018 12:00:00 18,6 12,1 9 5 WNW 1021,5 -
14.06.2018 11:00:00 17,4 13,4 8 4 WNW 1021,4 20
14.06.2018 10:00:00 16,1 12,9 0 0 N 1021,4 -
14.06.2018 09:00:00 15,0 12,8 4 2 O 1021,4 -
14.06.2018 08:00:00 13,3 12,1 8 4 O 1021,3 15
14.06.2018 07:00:00 12,7 11,8 4 2 O 1021,4 -
14.06.2018 06:00:00 12,5 11,6 8 4 O 1021,1 -
14.06.2018 05:00:00 13,1 12,2 8 4 OZO 1021,4 10
14.06.2018 04:00:00 13,5 12,7 8 4 OZO 1021,8 -
14.06.2018 03:00:00 13,4 12,5 9 5 OZO 1022,0 -
14.06.2018 02:00:00 13,1 12,2 8 4 O 1022,6 -
14.06.2018 01:00:00 12,8 11,7 8 4 OZO 1022,8 -
14.06.2018 00:00:00 14,2 12,2 2 1 O 1023,1 -
13.06.2018 23:00:00 15,3 12,8 8 4 N 1022,9 20
13.06.2018 22:00:00 15,8 12,9 8 4 NNW 1022,6 -
13.06.2018 21:00:00 17,2 12,7 11 6 NW 1022,4 -
13.06.2018 20:00:00 18,6 12,6 16 9 NNW 1022,3 20
13.06.2018 19:00:00 18,1 12,9 18 10 NW 1022,3 -
13.06.2018 18:00:00 18,9 13,1 22 12 NW 1022,6 -
13.06.2018 17:00:00 19,8 12,6 26 14 NNW 1022,8 20
13.06.2018 16:00:00 19,8 12,7 22 12 NNW 1022,8 -
13.06.2018 15:00:00 18,2 13,1 28 15 NNW 1022,8 -
13.06.2018 14:00:00 19,1 13,9 28 15 NW 1023,1 20
13.06.2018 13:00:00 19,2 13,9 28 15 NW 1022,8 -
13.06.2018 12:00:00 18,8 12,5 29 16 NW 1022,5 -
13.06.2018 11:00:00 17,3 13,2 26 14 NW 1022,3 20
13.06.2018 10:00:00 16,7 12,8 22 12 WNW 1022,4 -
13.06.2018 09:00:00 16,5 12,7 18 10 WNW 1022,1 -
13.06.2018 08:00:00 16,0 12,5 21 11 WNW 1021,9 20
13.06.2018 07:00:00 16,2 12,4 24 13 WNW 1021,5 -
13.06.2018 06:00:00 16,3 13,0 22 12 WNW 1021,3 -

tt = temperatuur
td = dauwpunt
ff = windsnelheid
dd = windrichting
ppp = luchtdruk
vv = zicht

Weerstations in de omgeving